User: anonymous   Login
Location: Unspecified
(0.0000°N, 0.0000°E)
Time: 14:21:34
(UTC+02:00)
Language:

Ariane 42L R/B - Orbit

View from above orbital plane
View from above orbital plane
View from above satellite
View from above satellite

Ground track
Ground track

The orbit data is extracted from the following two-line orbital elements,

1 26299U 00020B   15213.47937238  .00019402  00000-0  19006-2 0  9999
2 26299 007.3972 172.0365 6051271 151.0421 021.5393 03.99846419191050
Epoch (UTC): 01 August 2015 11:30:17
Eccentricity: 0.6051271
inclination: 7.3972°
perigee height: 243 km
apogee height: 20536 km
right ascension of ascending node: 172.0365°
argument of perigee: 151.0421°
revolutions per day: 3.99846419
mean anomaly at epoch: 21.5393°
orbit number at epoch: 19105

The dashed part of the orbit path shows where the satellite is in the earth's shadow,  

DLR